| time (UTC) | temp F | wind direction | speed MPH | gust MPH | rain 1hr in | rain 24hr in | rain mn in | humidity % | barometer mb |
| 20260905174506 | 75 | 34 | 0.0 | 4.0 | 0.00 | 0.00 | 0.00 | 62 | 1019.4 |
| 20260905173007 | 75 | 48 | 0.0 | 4.0 | 0.00 | 0.00 | 0.00 | 63 | 1019.6 |
| 20260905171511 | 75 | 37 | 1.0 | 5.0 | 0.00 | 0.00 | 0.00 | 64 | 1019.9 |
| 20260905170010 | 75 | 40 | 0.0 | 6.0 | 0.00 | 0.00 | 0.00 | 70 | 1019.8 |
| 20260905164510 | 74 | 233 | 0.0 | 4.0 | 0.00 | 0.00 | 0.00 | 69 | 1019.8 |
| 20260905163009 | 73 | 49 | 0.0 | 5.0 | 0.00 | 0.00 | 0.00 | 70 | 1019.7 |
| 20260905161521 | 72 | 61 | 2.0 | 7.0 | 0.00 | 0.00 | 0.00 | 75 | 1019.8 |
| 20260905160011 | 70 | 224 | 0.0 | 4.0 | 0.00 | 0.00 | 0.00 | 79 | 1019.8 |
| 20260905154510 | 68 | 60 | 2.0 | 6.0 | 0.00 | 0.00 | 0.00 | 87 | 1019.9 |
| 20260905153009 | 67 | 44 | 0.0 | 4.0 | 0.00 | 0.00 | 0.00 | 92 | 1019.8 |
| 20260905151511 | 65 | 94 | 0.0 | 1.0 | 0.00 | 0.00 | 0.00 | 93 | 1019.9 |
| 20260905150012 | 64 | 20 | 0.0 | 2.0 | 0.00 | 0.00 | 0.00 | 97 | 1020.0 |
| 20260905144519 | 63 | 21 | 0.0 | 0.0 | 0.00 | 0.00 | 0.00 | 97 | 1020.1 |
| 20260905143010 | 63 | 21 | 0.0 | 1.0 | 0.00 | 0.00 | 0.00 | 97 | 1019.8 |
| 20260905141514 | 62 | 21 | 0.0 | 0.0 | 0.00 | 0.00 | 0.00 | 97 | 1019.6 |
| 20260905140019 | 61 | 21 | 0.0 | 1.0 | 0.00 | 0.00 | 0.00 | 97 | 1019.3 |
| 20260905134514 | 60 | 25 | 0.0 | 0.0 | 0.00 | 0.00 | 0.00 | 97 | 1019.2 |
| 20260905133022 | 59 | 26 | 0.0 | 0.0 | 0.00 | 0.00 | 0.00 | 97 | 1019.2 |
| 20260905131515 | 57 | 26 | 0.0 | 0.0 | 0.00 | 0.00 | 0.00 | 97 | 1019.1 |
| 20260905130013 | 56 | 25 | 0.0 | 0.0 | 0.00 | 0.00 | 0.00 | 97 | 1018.8 |
| 20260905124513 | 55 | 26 | 0.0 | 0.0 | 0.00 | 0.00 | 0.00 | 97 | 1018.8 |
| 20260905123016 | 55 | 26 | 0.0 | 0.0 | 0.00 | 0.00 | 0.00 | 97 | 1018.7 |
| 20260905121515 | 54 | 24 | 0.0 | 0.0 | 0.00 | 0.00 | 0.00 | 96 | 1018.7 |
| 20260905120030 | 54 | 26 | 0.0 | 0.0 | 0.00 | 0.01 | 0.00 | 96 | 1018.5 |
| 20260905114520 | 54 | 25 | 0.0 | 0.0 | 0.00 | 0.08 | 0.00 | 96 | 1018.3 |
| 20260905113019 | 55 | 27 | 0.0 | 0.0 | 0.00 | 0.09 | 0.00 | 96 | 1018.2 |
| 20260905111525 | 55 | 27 | 0.0 | 0.0 | 0.00 | 0.09 | 0.00 | 96 | 1018.1 |
| 20260905110022 | 55 | 27 | 0.0 | 0.0 | 0.00 | 0.09 | 0.00 | 96 | 1018.1 |
| 20260905104520 | 55 | 27 | 0.0 | 0.0 | 0.00 | 0.09 | 0.00 | 96 | 1018.0 |
| 20260905103026 | 55 | 29 | 0.0 | 0.0 | 0.00 | 0.09 | 0.00 | 96 | 1018.0 |
| 20260905101519 | 55 | 27 | 0.0 | 0.0 | 0.00 | 0.09 | 0.00 | 96 | 1018.1 |
| 20260905100023 | 56 | 28 | 0.0 | 0.0 | 0.00 | 0.09 | 0.00 | 96 | 1018.1 |
| 20260905094520 | 56 | 25 | 0.0 | 0.0 | 0.00 | 0.09 | 0.00 | 96 | 1017.9 |
| 20260905093020 | 55 | 30 | 0.0 | 0.0 | 0.00 | 0.09 | 0.00 | 96 | 1018.1 |
| 20260905091524 | 56 | 29 | 0.0 | 0.0 | 0.00 | 0.09 | 0.00 | 96 | 1018.1 |
| 20260905090020 | 56 | 26 | 0.0 | 0.0 | 0.00 | 0.09 | 0.00 | 96 | 1018.0 |
| 20260905084520 | 56 | 26 | 0.0 | 0.0 | 0.00 | 0.09 | 0.00 | 96 | 1018.2 |
| 20260905083021 | 56 | 27 | 0.0 | 0.0 | 0.00 | 0.10 | 0.00 | 96 | 1018.1 |
| 20260905081511 | 56 | 26 | 0.0 | 0.0 | 0.00 | 0.13 | 0.00 | 96 | 1018.1 |
| 20260905080028 | 56 | 27 | 0.0 | 0.0 | 0.00 | 0.18 | 0.00 | 96 | 1018.1 |
| 20260905074526 | 56 | 27 | 0.0 | 0.0 | 0.00 | 0.46 | 0.00 | 96 | 1018.1 |
| 20260905073030 | 56 | 28 | 0.0 | 0.0 | 0.00 | 0.66 | 0.00 | 96 | 1017.9 |
| 20260905071523 | 57 | 29 | 0.0 | 0.0 | 0.00 | 0.67 | 0.00 | 96 | 1017.9 |
| 20260905070025 | 57 | 28 | 0.0 | 0.0 | 0.00 | 0.70 | 0.00 | 95 | 1018.0 |
| 20260905064535 | 57 | 27 | 0.0 | 0.0 | 0.00 | 0.75 | 0.00 | 96 | 1017.9 |
| 20260905063027 | 57 | 27 | 0.0 | 0.0 | 0.00 | 0.78 | 0.00 | 96 | 1017.8 |
| 20260905061525 | 57 | 27 | 0.0 | 0.0 | 0.00 | 0.79 | 0.00 | 95 | 1017.9 |
| 20260905060011 | 57 | 30 | 0.0 | 0.0 | 0.00 | 0.79 | 0.00 | 95 | 1017.9 |
| 20260905054528 | 57 | 29 | 0.0 | 0.0 | 0.00 | 0.79 | 0.00 | 95 | 1017.9 |
| 20260905053023 | 58 | 27 | 0.0 | 0.0 | 0.00 | 0.79 | 0.00 | 95 | 1017.7 |
| 20260905051539 | 58 | 30 | 0.0 | 0.0 | 0.00 | 0.79 | 0.00 | 95 | 1017.7 |
| 20260905050008 | 58 | 29 | 0.0 | 0.0 | 0.00 | 0.79 | 0.00 | 95 | 1017.6 |
| 20260905044512 | 59 | 360 | 0.0 | 0.0 | 0.00 | 0.79 | 0.00 | 95 | 1017.5 |
| 20260905043018 | 59 | 360 | 0.0 | 0.0 | 0.00 | 0.79 | 0.00 | 95 | 1017.5 |
| 20260905041525 | 59 | 360 | 0.0 | 0.0 | 0.00 | 0.79 | 0.00 | 95 | 1017.4 |
| 20260905040028 | 60 | 28 | 0.0 | 0.0 | 0.00 | 0.79 | 0.00 | 95 | 1017.4 |
| 20260905034522 | 60 | 26 | 0.0 | 0.0 | 0.00 | 0.79 | 0.79 | 95 | 1017.3 |
| 20260905033024 | 60 | 360 | 0.0 | 0.0 | 0.00 | 0.79 | 0.79 | 95 | 1017.4 |
| 20260905031526 | 60 | 27 | 0.0 | 0.0 | 0.00 | 0.79 | 0.79 | 95 | 1017.4 |
| 20260905030029 | 61 | 27 | 0.0 | 0.0 | 0.00 | 0.79 | 0.79 | 94 | 1017.5 |
| 20260905024532 | 61 | 27 | 0.0 | 0.0 | 0.00 | 0.79 | 0.79 | 94 | 1017.5 |
| 20260905023013 | 61 | 360 | 0.0 | 0.0 | 0.00 | 0.79 | 0.79 | 94 | 1017.6 |
| 20260905021533 | 62 | 360 | 0.0 | 0.0 | 0.00 | 0.79 | 0.79 | 94 | 1017.4 |
| 20260905020028 | 62 | 25 | 0.0 | 0.0 | 0.00 | 0.79 | 0.79 | 93 | 1017.4 |
| 20260905014531 | 63 | 27 | 0.0 | 0.0 | 0.00 | 0.79 | 0.79 | 93 | 1017.3 |
| 20260905013029 | 63 | 28 | 0.0 | 0.0 | 0.00 | 0.79 | 0.79 | 93 | 1017.3 |
| 20260905011512 | 64 | 30 | 0.0 | 0.0 | 0.00 | 0.79 | 0.79 | 94 | 1017.0 |
| 20260905010023 | 64 | 27 | 0.0 | 0.0 | 0.00 | 0.79 | 0.79 | 93 | 1016.8 |
| 20260905004531 | 64 | 28 | 0.0 | 0.0 | 0.00 | 0.79 | 0.79 | 93 | 1016.7 |
| 20260905003036 | 64 | 360 | 0.0 | 0.0 | 0.00 | 0.79 | 0.79 | 93 | 1016.6 |
| 20260905001512 | 65 | 360 | 0.0 | 0.0 | 0.00 | 0.79 | 0.79 | 93 | 1016.6 |
| 20260905000018 | 65 | 26 | 0.0 | 1.0 | 0.00 | 0.79 | 0.79 | 92 | 1016.7 |
| 20260904234523 | 65 | 32 | 0.0 | 0.0 | 0.00 | 0.79 | 0.79 | 91 | 1016.7 |
| 20260904233006 | 65 | 27 | 0.0 | 1.0 | 0.00 | 0.79 | 0.79 | 91 | 1016.7 |
| 20260904231510 | 66 | 25 | 0.0 | 1.0 | 0.00 | 0.79 | 0.79 | 90 | 1016.8 |
| 20260904230016 | 66 | 122 | 0.0 | 2.0 | 0.00 | 0.79 | 0.79 | 90 | 1016.9 |
| 20260904224524 | 66 | 40 | 0.0 | 2.0 | 0.00 | 0.79 | 0.79 | 90 | 1016.7 |
| 20260904223028 | 66 | 36 | 0.0 | 5.0 | 0.00 | 0.79 | 0.79 | 90 | 1016.6 |
| 20260904221519 | 66 | 62 | 0.0 | 2.0 | 0.00 | 0.79 | 0.79 | 91 | 1016.4 |
| 20260904220012 | 66 | 44 | 0.0 | 3.0 | 0.00 | 0.79 | 0.79 | 91 | 1016.3 |
| 20260904214519 | 66 | 58 | 0.0 | 3.0 | 0.00 | 0.79 | 0.79 | 92 | 1016.2 |
| 20260904213023 | 65 | 65 | 1.0 | 4.0 | 0.00 | 0.79 | 0.79 | 92 | 1016.4 |
| 20260904211534 | 66 | 74 | 0.0 | 6.0 | 0.00 | 0.79 | 0.79 | 92 | 1016.3 |
| 20260904210006 | 66 | 43 | 1.0 | 5.0 | 0.00 | 0.79 | 0.79 | 91 | 1016.3 |
| 20260904204511 | 66 | 56 | 0.0 | 1.0 | 0.00 | 0.79 | 0.79 | 92 | 1016.2 |
| 20260904203028 | 66 | 18 | 0.0 | 2.0 | 0.00 | 0.79 | 0.79 | 93 | 1016.1 |
| 20260904201529 | 66 | 360 | 0.0 | 1.0 | 0.00 | 0.79 | 0.79 | 93 | 1016.1 |
| 20260904200032 | 66 | 17 | 0.0 | 2.0 | 0.00 | 0.79 | 0.79 | 92 | 1016.1 |
| 20260904194507 | 66 | 16 | 0.0 | 2.0 | 0.00 | 0.79 | 0.79 | 92 | 1016.1 |
| 20260904193029 | 66 | 66 | 0.0 | 3.0 | 0.00 | 0.79 | 0.79 | 93 | 1016.3 |
| 20260904191523 | 66 | 195 | 0.0 | 2.0 | 0.00 | 0.79 | 0.79 | 93 | 1016.0 |
| 20260904190027 | 66 | 203 | 0.0 | 5.0 | 0.00 | 0.79 | 0.79 | 95 | 1015.9 |
| 20260904184530 | 66 | 73 | 0.0 | 2.0 | 0.00 | 0.79 | 0.79 | 95 | 1015.8 |
| 20260904183010 | 65 | 162 | 0.0 | 2.0 | 0.00 | 0.79 | 0.79 | 96 | 1016.1 |
| 20260904181516 | 65 | 174 | 0.0 | 3.0 | 0.00 | 0.79 | 0.79 | 95 | 1015.9 |
| 20260904180028 | 65 | 115 | 0.0 | 4.0 | 0.00 | 0.79 | 0.79 | 95 | 1015.9 |